Regional Weather Roundup
Issued by NWS Pendleton, OR

Home | Current Version | Previous Version | Text Only | Print | Product List | Glossary On
Versions: 1 2 3 4 5 6 7 8 9 10 11 12 13 14 15 16 17 18 19 20 21 22 23 24 25 26 27 28 29 30 31 32 33 34 35 36 37 38 39 40 41 42 43 44 45 46 47 48 49 50
000
ASUS46 KPDT 031525
RWRPDT
PENDLETON REGIONAL WEATHER ROUNDUP
NATIONAL WEATHER SERVICE PENDLETON OREGON
800 AM PDT FRI JUL 3 2015

NOTE: FAIR INDICATES FEW OR NO CLOUDS BELOW 12,000 FEET WITH NO
SIGNIFICANT WEATHER AND/OR OBSTRUCTIONS TO VISIBILITY.

# INDICATES UNOFFICIAL STATION AND DATA

WAZ520-031610-
EAST SLOPES OF WASHINGTON CASCADES

CITY            SKY/WX      TMP DP  RH  WIND    PRES   REMARKS
#BULLFROG 2SW   N/A         76  50  40  W5      27.58F
#BUMPING DAM    N/A         54  N/A N/A S2      N/A
#CLE ELUM HS    N/A         72  49  44  SW6     29.91F
#CLE ELUM LAKE  N/A         70  49  47  CALM    29.80F
#CLIFFDEL 2NW   N/A         58  41  53  CALM    N/A
#GLENWOOD       N/A         64  56  75  CALM    29.83F
#MANASTASH CYN  N/A         76  38  25  CALM    29.95F
#NELSON         N/A         69  54  59  CALM    29.85F
#NELSON 3SW     N/A         72  51  48  CALM    30.01F
#NILE           N/A         72  46  39  CALM    29.15F
#RONALD 2NW     N/A         66  48  52  N1      29.88F
#SNOWDEN        N/A         68  40  36  N2      N/A
#TEANAWAY 4NE   N/A         63  50  62  N2      N/A
#TROUT LAKE 1NE N/A         68  54  61  CALM    29.82F
$$

WAZ521-031610-
SIMCOE HIGHLANDS

CITY            SKY/WX      TMP DP  RH  WIND    PRES   REMARKS
#BICKLETON HS   N/A         82  37  20  CALM    N/A
#CENTERVILLE 1SWN/A         73  52  48  CALM    29.78
#GOLDENDALE     N/A         66  50  56  E2      N/A
#GOLDENDALE 5WNWN/A         74  52  46  CALM    29.80S
#GOODNOE HILLS  N/A         80  54  41  W8      N/A
#LYLE 6NE       N/A         71  57  61  SE6     29.80S
$$

WAZ026-031610-
KITTITAS VALLEY

CITY            SKY/WX      TMP DP  RH  WIND    PRES   REMARKS
ELLENSBURG AP   SUNNY       81  47  30  NW21G28 29.92S
YTC-OPS AREA    N/A         75  41  29  W25G36  29.95R
#ELLENSBURG CWU N/A         78  49  36  NW10    29.76F
#ELLENSBURG 3NE N/A         78  50  38  W9      29.92S
#KITTITAS 3S    N/A         72  60  66  CALM    29.81S
#THORP 6N       N/A         73  49  43  NW16    29.82S
$$

WAZ027-031610-
YAKIMA VALLEY

CITY            SKY/WX      TMP DP  RH  WIND    PRES   REMARKS
SUNNYSIDE AP    SUNNY       74  52  46  CALM    29.87R
YAKIMA AIRPORT  SUNNY       84  45  26  N9      29.90S
#DONALD 2NE     N/A         89  16   7  SW1     28.72S
#GRANDVIEW      N/A         77  49  37  CALM    29.83S
#MABTON         N/A         79  55  44  W3      29.85S
#MOXEE 2E       N/A         81  27  14  W2      29.82F
#NACHES 2SW     N/A         77  49  37  NW7     29.93R
#OUTLOOK DOT    N/A         N/A N/A N/A CALM    N/A
#SELAH 8E       N/A         82  44  26  NE7     N/A
#TERRACE HTS    N/A         79  47  32  S1      29.76F
#TOPPENISH      N/A         80  48  33  N2      29.73S
#WAPATO 4NE     N/A         89  16   7  SW1     28.72F
#WEST VALLEY    N/A         80  48  33  SW3     29.79S
#W YAKIMA       N/A         80  49  34  NE3     29.80F
#WHITE SWAN 5E  N/A         77  59  54  CALM    29.82S
#WILEY CITY 3W  N/A         85  39  20  CALM    29.88S
$$

WAZ028-031610-
LOWER COLUMBIA BASIN...WASHINGTON

CITY            SKY/WX      TMP DP  RH  WIND    PRES   REMARKS
PASCO           SUNNY       79  57  47  CALM    29.85S
RICHLAND AWOS   SUNNY       81  57  44  CALM    29.85R
#BASIN CITY 5SW N/A         72  62  71  CALM    29.85S
#BENTON CITY    N/A         80  47  31  W5      29.72S
#CONNELL 5N     N/A         80  49  34  CALM    29.80S
#CONNELL 5NW    N/A         76  57  52  S2      29.76S
#ELTOPIA 6NW    N/A         76  58  54  S2      28.84S
#KAHLOTUS       N/A         84  48  29  W3      29.79S
#KENNEWICK      N/A         76  50  40  W5      27.58F
#KENNEWICK 3S   N/A         82  52  35  CALM    29.81R
#PASCO-BROADMOORN/A         91  31  12  S2      29.67S HX 87
#PATERSON       N/A         74  58  57  SE1     29.82R
#PROSSER        N/A         78  48  35  CALM    29.80S
#SAGEMOOR 2W    N/A         78  57  48  CALM    29.66S
#TOUCHET 2S     N/A         70  62  76  CALM    29.81S
#WEST PASCO     N/A         80  63  56  CALM    29.83R
$$

WAZ029-031610-
FOOTHILLS OF THE BLUES...WASHINGTON

CITY            SKY/WX      TMP DP  RH  WIND    PRES   REMARKS
WALLA WALLA AP  SUNNY       86  48  27  SW9     29.89S
#DAYTON SCHOOL  N/A         79  47  32  CALM    29.92R
#LOWDEN 2SE     N/A         82  57  43  E1      29.83R
#PLEASANT VIEW 1N/A         82  48  31  S6      29.81S
#PRESCOTT       N/A         77  55  47  CALM    29.80F
#SUDBURY        N/A         85  N/A N/A CALM    N/A
#WAITSBURG 5S   N/A         83  49  31  W3      29.88S
#WAITSBURG 8N   N/A         82  28  14  SE10    29.76R
#WALLA WALLA U  N/A         84  56  38  CALM    29.81R
#WHITMAN MISSIONN/A         76  64  66  CALM    29.83S
$$

WAZ030-031610-
BLUE MOUNTAINS...WASHINGTON

CITY            SKY/WX      TMP DP  RH  WIND    PRES   REMARKS
#DIXIE 5SE      N/A         82  47  29  S7      29.94R
$$

ORZ009-041-WAZ024-031610-
COLUMBIA RIVER GORGE

CITY            SKY/WX      TMP DP  RH  WIND    PRES   REMARKS
HOOD RIVER AP   SUNNY       73  50  44  S3      29.91S
THE DALLES AP   SUNNY       78  56  47  NW9     29.87S
#ARLINGTON AIRPON/A         80  55  42  W12     N/A
#ARLINGTON HS   N/A         82  52  35  CALM    29.72S
#CELILO DOT     N/A         82  59  46  SW3     N/A
#MOSIER 1S      N/A         72  48  43  N8      29.88S
#MURDOCK        N/A         77  61  58  W9      29.87R
#RUFUS DOT      N/A         79  59  50  SW3     N/A

$$

ORZ510-031610-
NORTH CENTRAL OREGON

CITY            SKY/WX      TMP DP  RH  WIND    PRES   REMARKS
#CHENOWITH 1W   N/A         70  54  57  NW21    N/A
#COW CYN RST AREN/A         72  N/A N/A SW5     N/A
#DUFUR 9E       N/A         78  47  34  CALM    29.84S
#GRASS VALLEY 1SN/A         76  49  39  SW8     29.83S
#KENT DOT       N/A         77  47  35  SW8     N/A
#MAUPIN SCHOOL  N/A         70  46  42  CALM    29.93S
#MORO SCHOOL    N/A         79  53  41  SW1     29.94S
#SHANIKO 5WSW   N/A         71  44  38  S12     N/A
#SHANIKO 4NW    N/A         71  40  32  SW2     30.04R
#TYGH VALLEY 2NEN/A         68  44  42  CALM    29.85S
#WAPANITIA AIRPON/A         75  47  37  N1      29.83S
#WASCO DOT      N/A         80  59  49  W8      N/A
#WASCO AIRPORT  N/A         76  49  39  W8      N/A
#WASCO 5NE      N/A         77  54  45  CALM    29.80S
$$

ORZ511-031610-
CENTRAL OREGON

CITY            SKY/WX      TMP DP  RH  WIND    PRES   REMARKS
BEND AIRPORT    N/A         N/A N/A N/A MISG    N/A
MADRAS AIRPORT  PTCLDY      68  46  45  SE5     30.01F
PRINEVILLE AP   PTCLDY      72  39  30  CALM    30.04S
REDMOND AIRPORT PTCLDY      71  46  41  CALM    30.03S
#BEND 1SW       N/A         70  52  53  SW1     N/A
#BEND-AWBREY    N/A         70  50  49  S1      29.80S
#BEND-KIM LN    N/A         69  52  55  SW6     30.03S
#CROOKED RVR RANN/A         72  48  43  SW1     29.81S
#CULVER         N/A         69  49  49  CALM    29.97S
#LAKE BILLY CHINN/A         68   2   7  N1      30.06S
#POWELL BUTTE 3EN/A         66  45  47  E3      N/A
#POWELL BUTTE   N/A         82  50  33  N1      29.68R
#PRINEVILLE 3N  N/A         67  50  54  W2      29.81S
#WARM SPRINGS   N/A         73  46  38  CALM    29.94F

$$


ORZ509-031610-
EAST SLOPES OF OREGON CASCADES

CITY            SKY/WX      TMP DP  RH  WIND    PRES   REMARKS
#BLUE BOX PASS  N/A         64   8  11  NW3     N/A
#CAMP SHERMAN   N/A         50  44  80  CALM    29.90F
#LA PINE 4NW    N/A         62  50  65  CALM    29.88S
#SISTERS AIRPOR N/A         68  50  53  CALM    30.17S
#SISTERS ODOT   N/A         66  N/A N/A CALM    N/A
#SISTERS 1NW    N/A         60  42  51  NE6     N/A
#SISTERS 3N     N/A         64  48  56  CALM    30.04S
#SUNRIVER       N/A         64  53  67  SW1     29.72F
#TUMALO 3W      N/A         74  44  34  CALM    29.69S
#WANOGA BUTTE D N/A         72  26  18  CALM    N/A

$$

ORZ044-031610-
LOWER COLUMBIA BASIN...OREGON

CITY            SKY/WX      TMP DP  RH  WIND    PRES   REMARKS
HERMISTON       SUNNY       81  52  37  NW5     29.87R
#BOARDMAN SCHOOLN/A         77  62  60  NW1     29.86S
#BOARDMAN 8SW   N/A         81  57  44  W7      29.82R
#ECHO 8SW       N/A         84  48  29  W12     29.88R
#IONE SCHOOL    N/A         78  47  34  CALM    29.86S
#IRRIGON 4NW    N/A         76  58  54  E3      N/A
#UMATILLA SCHOOLN/A         81  61  51  CALM    29.85F
#UMATILLA       N/A         77  55  47  CALM    29.78S
$$

ORZ507-031610-
NORTHERN FOOTHILLS OF THE BLUES

CITY            SKY/WX      TMP DP  RH  WIND    PRES   REMARKS
PENDLETON AIRPT SUNNY       77  44  31  SE6     29.91S
#ADAMS 3WNW     N/A         80  50  35  CALM    29.82R
#ATHENA         N/A         81  52  37  CALM    29.84R
#CAYUSE         N/A         78  50  38  E5      29.80S
#HELIX SCHOOL   N/A         77  48  36  SW5     29.81S
#HELIX 3N       N/A         80  46  30  SW9     29.91R
#HELIX 6SW      N/A         79  48  34  S6      29.92R
#HOLDMAN 6E     N/A         81  47  30  N9      29.63R
#M-F GROVE ELEM N/A         86  45  24  SW5     29.88R
#M-FREEWATER 5SEN/A         79  53  41  CALM    29.90R
#PENDLETON DNTN N/A         70  47  44  CALM    29.87F
#PDT AQUATIC CTRN/A         74  49  41  CALM    29.95S
#PDT SUNRIDGE   N/A         76  48  37  CALM    29.91F
#PENDLETON 7NW  N/A         82  55  40  CALM    27.36S
#PILOT ROCK     N/A         82  46  28  SE1     29.95S
#TUTUILLA       N/A         76  51  42  CALM    29.87R
#UMAPINE 2E     N/A         83  61  48  CALM    29.84R
#WESTON SCHOOL  N/A         81  47  30  W3      29.81R

$$

ORZ508-031610-
SOUTHERN FOOTHILLS OF THE BLUES

CITY            SKY/WX      TMP DP  RH  WIND    PRES   REMARKS
#AJAX           N/A         77  39  25  SW2     29.90R
#CONDON SCHOOL  N/A         76  46  34  CALM    29.96S
#CONDON 5W      N/A         75  39  27  SW5     29.99R
#FOSSIL SCHOOL  N/A         71  47  42  CALM    29.94S
#HEPPNER EOC    N/A         82  48  31  CALM    29.74F
#HEPPNER 4NE    N/A         79  43  28  W6      29.79R
#LEXINGTON 2SE  N/A         85  46  26  NW5     29.89S
#RUGGS 5NE      N/A         80  46  30  W5      30.17S
#RUGGS 2SW      N/A         81  46  29  E1      29.81S

$$

ORZ502-503-031610-
BLUE MOUNTAINS

CITY            SKY/WX      TMP DP  RH  WIND    PRES   REMARKS
MEACHAM         SUNNY       68  50  53  CALM    30.05S
#BATTLE MTN DOT N/A         64  51  63  S3      N/A
#HEPPNER 15SE   N/A         71  48  44  NW1     29.98R
#LONG CREEK HS  N/A         67  44  43  CALM    30.01S
#N POWDER DOT   N/A         68  54  61  CALM    N/A
#PIKES PEAK     N/A         74  47  38  SW12    27.99S
#TOLLGATE       N/A         74  47  38  CALM    30.04R
#TROY SCHOOL    N/A         77  53  43  CALM    29.69F
#UKIAH          N/A         59  49  69  CALM    29.92F
#WESTON 4E      N/A         78  50  38  SE2     29.74R
$$

ORZ505-031610-
JOHN DAY BASIN

CITY            SKY/WX      TMP DP  RH  WIND    PRES   REMARKS
JOHN DAY        PTCLDY      73  43  34  E6      30.07R
#JOHN DAY KJDY  N/A         69  61  76  CALM    30.05S
#DAYVILLE SCHOOLN/A         69  47  45  CALM    29.98S
#MITCHELL       N/A         76  52  43  CALM    30.16F
#MONUMENT HS    N/A         70  41  35  E1      29.99S
#MT. VERNON 5SE N/A         75  45  34  CALM    30.03R
#WINLOCK        N/A         83  47  28  CALM    30.11R
$$

ORZ506-031610-
OCHOCO AND JOHN DAY HIGHLANDS

CITY            SKY/WX      TMP DP  RH  WIND    PRES   REMARKS
#BUCK CREEK DOT N/A         74  74  100 NW6     N/A
#HORSE RIDGE DO N/A         68  38  33  SW1     N/A
#KEYES SMT DOT  N/A         77  41  28  N3      N/A
#PAULINA SCHOOL N/A         67  46  47  CALM    30.04R
#PINE MTN OBS   N/A         69  14  12  NW2     N/A
#PRAIRIE CITY   N/A         72  52  49  CALM    29.92F
#SENECA         N/A         59  N/A N/A CALM    N/A
#SENECA 9NW     N/A         58  44  60  CALM    29.79S
$$

ORZ049-031610-
GRANDE RONDE VALLEY

CITY            SKY/WX      TMP DP  RH  WIND    PRES   REMARKS
LA GRANDE       SUNNY       70  39  32  S3      30.01R
#COVE           N/A         68  54  61  CALM    30.01S
#ELGIN 3N       N/A         68  47  47  CALM    29.99R
#ELGIN 1E       N/A         62  49  62  CALM    N/A
#IMBLER SCHOOL  N/A         65  43  45  NW3     29.97R
#ISLAND CITY 4N N/A         66  58  75  CALM    29.95R
#LADD CYN DOT   N/A         70  46  42  N1      N/A
#UNION 1S       N/A         68  48  49  CALM    29.76R
$$

ORZ050-031610-
WALLOWA COUNTY

CITY            SKY/WX      TMP DP  RH  WIND    PRES   REMARKS
JOSEPH AIRPORT  N/A         75  41  29  CALM    30.08R
#ENTERPRISE HS  N/A         67  50  54  CALM    30.06S
#IMNAHA SCHOOL  N/A         72  44  37  S3      29.95F
#IMNAHA 10S     N/A         76  51  42  SW3     30.01S
#JOSEPH 3N      N/A         71  46  41  CALM    30.08R
#JOSEPH 3W      N/A         78  48  35  E2      29.94R
#LOSTINE        N/A         69  52  55  CALM    29.65S
#MT HOWARD 8000 N/A         63  34  34  N2      30.35R
#PROMISE 1S     N/A         75  50  41  CALM    29.87F
#WALLOWA SCHOOL N/A         63  48  58  CALM    29.99S



$$



USA.gov is the U.S. government's official web portal to all federal, state and local government web resources and services.